Terug naar catalogus

STARLINK-6333

ActiefCommunicatieVLEO
NORAD 56521·PAYLOAD·🇺🇸 United States

Gelanceerd May 14, 2023 vanaf Cape Canaveral Space Force Station

Loading…

Volgende Passages (komende 24 uur)

TLE

VersSource: CelesTrak SupGP

Epoch: Sep 14, 2026, 21:12 UTC

1 56521C 23065U   26257.88381944  .00031068  00000+0  11254-2 0  2571
2 56521  43.0016 227.6209 0000382 243.1279  59.0881 15.27560243    11

Volg STARLINK-6333 in realtime met AllMySat

Download on the App Store